sat.trackr.live / text

‹ back to catalog

STARLINK-34715

NORAD 64931 · 2025-157AD

PAYLOAD ACTIVE UNKNOWN

§ Identity

Operator
Country
US
Launch date
2025-07-26
Launch site
AFETR
Launch vehicle
Mass (kg)
RCS (m²)

Purposes: comms

External: N2YO · Heavens-Above · Gunter

§ Orbital elements

Epoch: 2026-09-20T22:57:16.401312Z

Period
93.85 min
Inclination
53.1581°
Eccentricity
0.0001717
Mean motion
15.34373109 rev/d
Perigee alt
461.6 km
Apogee alt
464.0 km
Semi-major
6,840.9 km
B*
4.2872e-4
RAAN
155.5782°
Arg perigee
66.3315°
Mean anomaly
293.7867°
Rev number
6,606

§ Raw data

STARLINK-347151 64931U 25157AD  26263.95643983  .00014124  00000+0  42872-3 0  99962 64931  53.1581 155.5782 0001717  66.3315 293.7867 15.34373109 66067

JSON: /api/v1/satellites/64931 · /tle

For live sub-satellite position, see the globe view (requires WebGL).

§ Visibility from observer

Set your observer location to see the next 7 days of passes ≥ 10°. The values pass through the URL so the page stays shareable.

No JS? Fill the form by hand. The geolocation button needs JavaScript.